Change the Weather History Date:

Wednesday, April 17, 2013

  Actual Average Record
Temperature  
Mean Temperature 47 °F 46 °F  
Max Temperature 58 °F 55 °F 86 °F (2002)
Min Temperature 36 °F 37 °F 22 °F (1980)
Degree Days  
Heating Degree Days 18 19  
Month to date heating degree days 395 385  
Since 1 July heating degree days 6350 6581  
Cooling Degree Days 0 0  
Month to date cooling degree days 0 0  
Year to date cooling degree days 0 0  
Moisture  
Dew Point 33 °F    
Average Humidity 56    
Maximum Humidity 76    
Minimum Humidity 36    
Precipitation  
Precipitation 0.00 in 0.12 in 0.79 in (1982)
Month to date precipitation 2.43 2.00  
Year to date precipitation 8.88 9.75  
Snow  
Snow 0.00 in 0.20 in 3.00 in (1965)
Month to date snowfall 0.9 3.2  
Since 1 July snowfall 69.1 82.2  
Snow Depth 0.00 in    
Sea Level Pressure  
Sea Level Pressure 30.26 in    
Wind  
Wind Speed 8 mph (North)    
Max Wind Speed 14 mph    
Max Gust Speed 18 mph    
Visibility 10 miles    
Events Rain    
T = Trace of Precipitation, MM = Missing Value Source: NWS Daily Summary

Daily Weather History Graph

Daily Weather History Graph

Search for Another Location

Airport or City:

Trip Planner

Search our weather history database for the weather conditions in past years. The results will help you decide how hot, cold, wet, or windy it might be!

Date:

Astronomy

Apr. 17, 2013 Rise Set
Actual Time 6:19 AM EDT 7:47 PM EDT
Civil Twilight 5:50 AM EDT 8:17 PM EDT
Nautical Twilight 5:15 AM EDT 8:52 PM EDT
Astronomical Twilight 4:37 AM EDT 9:30 PM EDT
Moon 11:29 AM EDT (4/17) 1:26 AM EDT (4/17)
Length of Visible Light 14h 26m
Length of Day
13h 28m
Waxing Crescent, 42% of the Moon is Illuminated
Apr 17
Waxing Crescent
Apr 18
First Quarter
Apr 25
Full
May 2
Last Quarter
May 9
New

Hourly Weather History & Observations

Time (EDT) Temp. Windchill Dew Point Humidity Pressure Visibility Wind Dir Wind Speed Gust Speed Precip Events Conditions
12:00 AM 46.4 °F 43.5 °F 42.8 °F 87% 30.18 in 10.0 mi North 5.8 mph - 0.00 in Rain Light Rain
12:50 AM 46.4 °F 43.5 °F 42.8 °F 87% 30.19 in 10.0 mi North 5.8 mph - 0.00 in   Overcast
12:53 AM 46.9 °F - 43.0 °F 86% 30.21 in 10.0 mi North 6.9 mph - 0.00 in   Overcast
1:10 AM 46.4 °F 42.4 °F 42.8 °F 87% 30.20 in 10.0 mi NNW 8.1 mph - N/A   Overcast
1:53 AM 44.1 °F 38.6 °F 37.9 °F 79% 30.22 in 10.0 mi NW 10.4 mph - N/A   Overcast
2:44 AM 42.8 °F 40.1 °F 35.6 °F 76% 30.20 in 10.0 mi NNW 4.6 mph - N/A   Overcast
2:53 AM 42.1 °F 37.7 °F 33.1 °F 70% 30.22 in 10.0 mi NNW 6.9 mph - N/A   Overcast
3:53 AM 39.9 °F 32.9 °F 30.9 °F 70% 30.22 in 10.0 mi North 11.5 mph - N/A   Overcast
4:53 AM 37.9 °F 31.5 °F 30.9 °F 76% 30.22 in 10.0 mi North 9.2 mph - N/A   Partly Cloudy
5:53 AM 37.0 °F 32.4 °F 30.0 °F 76% 30.24 in 10.0 mi North 5.8 mph - N/A   Partly Cloudy
6:53 AM 37.0 °F 31.6 °F 30.0 °F 76% 30.28 in 10.0 mi NNW 6.9 mph - N/A   Clear
7:53 AM 39.0 °F 33.4 °F 30.9 °F 73% 30.29 in 10.0 mi NNW 8.1 mph - N/A   Clear
8:53 AM 41.0 °F 35.8 °F 30.9 °F 67% 30.30 in 10.0 mi NNW 8.1 mph - N/A   Clear
9:53 AM 44.6 °F 39.2 °F 30.2 °F 57% 30.28 in 10.0 mi North 10.4 mph - N/A   Clear
10:53 AM 48.0 °F - 32.0 °F 54% 30.30 in 10.0 mi NNW 11.5 mph 18.4 mph N/A   Clear
11:53 AM 50.0 °F - 30.9 °F 48% 30.30 in 10.0 mi NNW 6.9 mph - N/A   Clear
12:53 PM 52.0 °F - 32.0 °F 47% 30.29 in 10.0 mi Variable 4.6 mph 16.1 mph N/A   Clear
1:53 PM 55.0 °F - 30.9 °F 40% 30.28 in 10.0 mi North 6.9 mph - N/A   Clear
2:53 PM 55.9 °F - 30.9 °F 39% 30.27 in 10.0 mi North 10.4 mph - N/A   Clear
3:53 PM 57.0 °F - 30.9 °F 37% 30.26 in 10.0 mi North 10.4 mph - N/A   Clear
4:53 PM 57.0 °F - 30.0 °F 36% 30.27 in 10.0 mi NNE 6.9 mph - N/A   Clear
5:53 PM 55.9 °F - 30.0 °F 37% 30.28 in 10.0 mi NE 4.6 mph - N/A   Clear
6:53 PM 54.0 °F - 30.9 °F 41% 30.29 in 10.0 mi NNE 4.6 mph - N/A   Clear
7:53 PM 50.0 °F - 30.0 °F 46% 30.29 in 10.0 mi North 5.8 mph - N/A   Clear
8:53 PM 48.0 °F - 28.9 °F 48% 30.29 in 10.0 mi NNE 5.8 mph - N/A   Clear
9:53 PM 48.0 °F - 28.9 °F 48% 30.29 in 10.0 mi NE 4.6 mph - N/A   Clear
10:53 PM 46.0 °F 43.1 °F 28.9 °F 51% 30.29 in 10.0 mi ENE 5.8 mph - N/A   Clear
11:53 PM 45.0 °F 41.2 °F 28.9 °F 53% 30.28 in 10.0 mi East 6.9 mph - N/A   Clear